Weather History for Omaha Millard, NE

Change the Weather History Date:

Thursday, May 16, 2013

  Actual Average (KOMA) Record (KOMA)
Temperature  
Mean Temperature 72 °F 62 °F  
Max Temperature 84 °F 74 °F 93 °F (1944)
Min Temperature 59 °F 51 °F 33 °F (2014)
Degree Days  
Heating Degree Days 0 5  
Month to date heating degree days 102  
Since 1 July heating degree days 6104  
Cooling Degree Days 6 2  
Month to date cooling degree days 21  
Year to date cooling degree days 37  
Growing Degree Days 22 (Base 50)    
Moisture  
Dew Point 56 °F    
Average Humidity 56    
Maximum Humidity 76    
Minimum Humidity 41    
Precipitation  
Precipitation 0.00 in 0.16 in 1.75 in (1896)
Month to date precipitation 2.36  
Year to date precipitation 8.88  
Snow  
Snow 0.00 in 0.00 in - ()
Month to date snowfall 0.1  
Since 1 July snowfall 26.5  
Snow Depth -    
Sea Level Pressure  
Sea Level Pressure 29.82 in    
Wind  
Wind Speed 3 mph (SSE)    
Max Wind Speed 15 mph    
Max Gust Speed 17 mph    
Visibility 10 miles    
Events      
T = Trace of Precipitation, MM = Missing Value Source: NWS Daily Summary

Daily Weather History Graph

Daily Weather History Graph

Search for Another Location

Airport:

Trip Planner

Search our weather history database for the weather conditions in past years. The results will help you decide how hot, cold, wet, or windy it might be!

Date:

Astronomy

May. 16, 2013 Rise Set
Actual Time 6:04 AM CDT 8:37 PM CDT
Civil Twilight 5:33 AM CDT 9:08 PM CDT
Nautical Twilight 4:54 AM CDT 9:48 PM CDT
Astronomical Twilight 4:10 AM CDT 10:32 PM CDT
Moon 11:40 AM CDT (5/16) 12:57 AM CDT (5/16)
Length of Visible Light 15h 35m
Length of Day
14h 32m
Waxing Crescent, 36% of the Moon is Illuminated
May 16
Waxing Crescent
May 17
First Quarter
May 24
Full
May 31
Last Quarter
Jun 8
New

Hourly Weather History & Observations

Time (CDT) Temp. Heat Index Dew Point Humidity Pressure Visibility Wind Dir Wind Speed Gust Speed Precip Events Conditions
12:15 AM 69.6 °F - 46.9 °F 44% 29.85 in 10.0 mi Calm Calm - N/A   Scattered Clouds
12:35 AM 69.8 °F - 46.8 °F 44% 29.86 in 10.0 mi Calm Calm - N/A   Mostly Cloudy
12:55 AM 70.5 °F - 46.8 °F 43% 29.85 in 10.0 mi Calm Calm - N/A   Mostly Cloudy
1:15 AM 68.9 °F - 45.7 °F 43% 29.85 in 10.0 mi Calm Calm - N/A   Scattered Clouds
1:35 AM 66.7 °F - 47.7 °F 50% 29.84 in 10.0 mi Calm Calm - N/A   Clear
1:55 AM 65.7 °F - 50.7 °F 58% 29.84 in 10.0 mi Calm Calm - N/A   Clear
2:15 AM 66.6 °F - 48.2 °F 52% 29.84 in 10.0 mi Calm Calm - N/A   Scattered Clouds
2:35 AM 68.2 °F - 47.3 °F 47% 29.83 in 10.0 mi Calm Calm - N/A   Scattered Clouds
2:55 AM 67.5 °F - 47.5 °F 49% 29.83 in 10.0 mi Calm Calm - N/A   Mostly Cloudy
3:15 AM 66.2 °F - 48.9 °F 54% 29.84 in 10.0 mi Calm Calm - N/A   Overcast
3:35 AM 65.3 °F - 50.0 °F 58% 29.84 in 10.0 mi Calm Calm - N/A   Mostly Cloudy
3:55 AM 62.8 °F - 50.4 °F 64% 29.84 in 10.0 mi Calm Calm - N/A   Scattered Clouds
4:15 AM 62.6 °F - 51.4 °F 67% 29.85 in 10.0 mi Calm Calm - N/A   Clear
4:35 AM 62.8 °F - 50.2 °F 63% 29.84 in 10.0 mi Calm Calm - N/A   Clear
4:55 AM 61.5 °F - 51.4 °F 69% 29.84 in 10.0 mi Calm Calm - N/A   Clear
5:15 AM 61.3 °F - 50.0 °F 66% 29.84 in 10.0 mi Calm Calm - N/A   Clear
5:35 AM 61.3 °F - 50.7 °F 68% 29.83 in 10.0 mi Calm Calm - N/A   Clear
5:55 AM 59.9 °F - 52.3 °F 76% 29.85 in 10.0 mi Calm Calm - N/A   Clear
6:15 AM 60.3 °F - 52.2 °F 75% 29.85 in 10.0 mi Calm Calm - N/A   Clear
6:35 AM 60.1 °F - 52.0 °F 75% 29.86 in 10.0 mi Calm Calm - N/A   Clear
6:55 AM 61.5 °F - 52.0 °F 71% 29.86 in 10.0 mi Calm Calm - N/A   Clear
7:15 AM 63.0 °F - 52.7 °F 69% 29.86 in 10.0 mi Calm Calm - N/A   Clear
7:35 AM 64.4 °F - 54.5 °F 70% 29.87 in 10.0 mi Calm Calm - N/A   Clear
7:55 AM 66.6 °F - 52.5 °F 61% 29.87 in 10.0 mi Calm Calm - N/A   Scattered Clouds
8:15 AM 66.6 °F - 53.4 °F 63% 29.87 in 10.0 mi SSE 3.5 mph - N/A   Clear
8:35 AM 66.4 °F - 54.0 °F 64% 29.87 in 10.0 mi Calm Calm - N/A   Scattered Clouds
8:55 AM 67.5 °F - 55.8 °F 66% 29.87 in 10.0 mi Calm Calm - N/A   Mostly Cloudy
9:15 AM 68.5 °F - 56.8 °F 66% 29.87 in 10.0 mi Calm Calm - N/A   Mostly Cloudy
9:35 AM 68.7 °F - 56.8 °F 66% 29.86 in 10.0 mi Calm Calm - N/A   Scattered Clouds
9:55 AM 70.7 °F - 58.3 °F 65% 29.86 in 10.0 mi Calm Calm - N/A   Clear
10:15 AM 72.1 °F - 59.9 °F 65% 29.85 in 10.0 mi ENE 3.5 mph - N/A   Clear
10:35 AM 73.6 °F - 60.4 °F 63% 29.85 in 10.0 mi East 6.9 mph - N/A   Clear
10:55 AM 74.8 °F - 61.3 °F 63% 29.85 in 10.0 mi SE 10.4 mph - N/A   Clear
11:15 AM 75.6 °F - 61.7 °F 62% 29.86 in 10.0 mi ESE 9.2 mph 16.1 mph N/A   Clear
11:35 AM 76.6 °F - 63.0 °F 62% 29.86 in 10.0 mi SE 9.2 mph - N/A   Scattered Clouds
11:55 AM 77.4 °F - 62.8 °F 61% 29.85 in 10.0 mi ESE 12.7 mph 17.3 mph N/A   Mostly Cloudy
12:15 PM 77.2 °F - 61.7 °F 59% 29.85 in 10.0 mi ESE 8.1 mph - N/A   Mostly Cloudy
12:35 PM 76.6 °F - 63.5 °F 64% 29.84 in 10.0 mi SE 15.0 mph - N/A   Overcast
12:55 PM 78.8 °F - 64.0 °F 60% 29.83 in 10.0 mi SSE 10.4 mph - N/A   Scattered Clouds
1:15 PM 79.9 °F - 63.9 °F 58% 29.82 in 10.0 mi SSE 9.2 mph - N/A   Clear
1:35 PM 79.2 °F - 62.6 °F 57% 29.81 in 10.0 mi South 9.2 mph - N/A   Mostly Cloudy
2:15 PM 81.9 °F 82.8 °F 62.1 °F 51% 29.79 in 10.0 mi South 8.1 mph 17.3 mph N/A   Scattered Clouds
2:35 PM 82.0 °F 82.8 °F 61.7 °F 50% 29.79 in 10.0 mi SSW 6.9 mph - N/A   Scattered Clouds
2:55 PM 82.6 °F 83.1 °F 61.0 °F 48% 29.79 in 10.0 mi South 4.6 mph - N/A   Mostly Cloudy
3:15 PM 82.6 °F 82.8 °F 59.9 °F 46% 29.79 in 10.0 mi SSE 6.9 mph - N/A   Mostly Cloudy
3:35 PM 83.5 °F 83.4 °F 59.7 °F 44% 29.79 in 10.0 mi South 5.8 mph - N/A   Scattered Clouds
3:55 PM 83.8 °F 83.4 °F 58.6 °F 42% 29.79 in 10.0 mi SSW 5.8 mph - N/A   Mostly Cloudy
4:15 PM 84.2 °F 83.7 °F 58.1 °F 41% 29.78 in 10.0 mi South 11.5 mph 16.1 mph N/A   Scattered Clouds
4:35 PM 82.8 °F 82.5 °F 58.1 °F 43% 29.77 in 10.0 mi SSE 9.2 mph - N/A   Scattered Clouds
5:15 PM 82.6 °F 82.5 °F 58.8 °F 44% 29.76 in 10.0 mi South 11.5 mph 16.1 mph N/A   Scattered Clouds
5:35 PM 83.3 °F 82.8 °F 57.0 °F 41% 29.76 in 10.0 mi South 8.1 mph - N/A   Scattered Clouds
5:55 PM 83.5 °F 82.9 °F 57.7 °F 41% 29.76 in 10.0 mi South 10.4 mph - N/A   Clear
6:15 PM 83.3 °F 83.1 °F 58.6 °F 43% 29.76 in 10.0 mi SSW 10.4 mph - N/A   Scattered Clouds
6:35 PM 82.6 °F 82.2 °F 57.6 °F 42% 29.76 in 10.0 mi SSW 8.1 mph - N/A   Scattered Clouds
6:55 PM 82.6 °F 82.5 °F 58.5 °F 44% 29.75 in 10.0 mi South 9.2 mph - N/A   Scattered Clouds
7:15 PM 81.9 °F 81.8 °F 57.7 °F 44% 29.76 in 10.0 mi South 8.1 mph - N/A   Scattered Clouds
7:35 PM 81.3 °F 81.4 °F 57.9 °F 45% 29.77 in 10.0 mi South 8.1 mph - N/A   Clear
7:55 PM 80.2 °F 80.5 °F 57.2 °F 45% 29.78 in 10.0 mi South 6.9 mph - N/A   Clear
8:15 PM 80.1 °F 80.3 °F 56.3 °F 44% 29.79 in 10.0 mi South 4.6 mph - N/A   Clear
8:35 PM 78.4 °F - 57.0 °F 48% 29.79 in 10.0 mi South 3.5 mph - N/A   Clear
8:55 PM 77.9 °F - 57.2 °F 49% 29.79 in 10.0 mi South 4.6 mph - N/A   Clear
9:15 PM 77.2 °F - 56.8 °F 49% 29.81 in 10.0 mi Calm Calm - N/A   Clear
9:35 PM 75.7 °F - 57.2 °F 52% 29.81 in 10.0 mi SSE 3.5 mph - N/A   Clear
9:55 PM 74.1 °F - 57.4 °F 56% 29.82 in 10.0 mi Calm Calm - N/A   Clear
10:15 PM 72.5 °F - 57.7 °F 60% 29.81 in 10.0 mi South 3.5 mph - N/A   Clear
10:35 PM 73.9 °F - 58.1 °F 58% 29.82 in 10.0 mi South 3.5 mph - N/A   Clear
10:55 PM 74.1 °F - 58.3 °F 58% 29.83 in 10.0 mi Calm Calm - N/A   Clear
11:15 PM 71.2 °F - 58.3 °F 64% 29.82 in 10.0 mi Calm Calm - N/A   Clear
11:35 PM 70.0 °F - 59.0 °F 68% 29.83 in 10.0 mi SSE 3.5 mph - N/A   Clear
11:55 PM 71.4 °F - 58.6 °F 64% 29.82 in 10.0 mi SSE 3.5 mph - N/A   Clear